map of SAH home
Great Circle Mapper logo
SAH - Airport
Location
City:  Sana'a, Yemen
Near (Alt.):Sanaa
Name:Sana'a International Airport
Old (Alt.):El Rahaba International Airport
ICAO / IATA:OYSN / SAH

Details
Type:Airport (Aerodrome, Airfield)
Use:Public/Civil, Military, International (customs port of entry)
Latitude:1528'35"N (15.476258)
Longitude:4413'11"E (44.219739)
Datum:WGS 1984
Elevation:7216 ft (2199 m)
Runways:1
Longest:10669 × 148 ft (3252 × 45 m), paved

Time
Time Zone:UTC+3
Local Time:

Weather
METAR:OYSN 251200Z 36008KT 9999 FEW030 22/M03 Q1024
TAF:OYSN 251000Z 2512/2618 04012KT 8000 SCT030
BECMG 2520/2522 VRB03KT
BECMG 2606/2608 04012KT
BECMG 2616/2618 VRB03KT

Related Locations
Nearby:
Farthest:PKP: 12241 mi / 19699 km
Puka Puka, PF

Find:

   beyond  
but within

Other Information
Maps:
NOTAMs:
Links:
Sources:

  
flag of Yemen   

Sectional Chart

Flight Planning
at skyvector.com

Satellite Image

Google Maps Satellite View

 

Copyright © 2004-2014 Karl L. Swartz. All rights reserved.
The Great Circle Mapper name and logo are trademarks of the Great Circle Mapper.
All other trademarks mentioned herein belong to their respective owners.
Please see credits for attibutions and further copyright information.

  Follow gcmap on Facebook Follow gcmap on Twitter

hCard Microformat

Geo Microformat